STARLINK-2429 (47838 NORAD) Tracking and Keplerian Element Data

This shows tracking and keplerian element data for the satellite.

Feedback or suggestion? Click here.




ElementValue
Catalog47838
NameSTARLINK-2429
Epoch Orbit1670
Epoch Day170.41472188
Epoch Year2021
RAAN72.1802
Inclination53.0569
Eccentricity0.0002155
Argument of Perigee80.4511
Mean Anonmoly279.6721
Mean Motion15.0638432
Decay Rate-1.057E-05
L11 47838U 21018BD 21170.41472188 -.00001057 00000-0 -52098-4 0 9991
L22 47838 53.0569 72.1802 0002155 80.4511 279.6721 15.06384320 16702

Live tracking and technical data element details for STARLINK-2429 (NORAD 47838). STARLINK-2429 can be tracked NOW for your location showing map with azimuth and elevation plus other details from your city location.

Track the satellite on the map from your city or location and see movement details for azimuth, elevation, latitude, longitude, range, height, and movement on the map or in text.







IsCatalogInMostPopularTable: catalog: 47838, numindb: 41
Update: records affected: 1



GetName: 47838 STARLINK-2429

Hit Count: updated at: Mon, 21 Jun 2021 03:11:33 GMT